Location: Chacón
(10.5789°N, 66.9317°W)
Time: 13:45:59
(UTC+00:00)

Cosmos 962 Rocket - Pass Details

Date: 18 October 2025
Orbit: 950 x 998 km, 82.9° (Epoch: 16 November)

Event Time Altitude Azimuth Distance (km) Brightness Sun altitude
Rises 07:59:47 0° 10° (N) 3,686 7.6 -34.2°
Reaches altitude 10° 08:02:29 10° 18° (NNE) 2,732 6.9 -33.6°
Maximum altitude 08:08:16 39° 85° (E) 1,422 5.7 -32.2°
Drops below altitude 10° 08:13:58 10° 152° (SSE) 2,701 7.2 -30.8°
Sets 08:16:37 0° 160° (SSE) 3,640 7.8 -30.1°
